Miscellaneous Local Product
Issued by NWS Hastings, NE

Home | Current Version | Previous Version | Text Only | Print | Product List | Glossary Off
Versions: 1 2 3 4 5 6 7 8 9 10 11 12 13 14 15 16 17 18 19 20 21 22 23 24 25 26 27 28 29 30 31 32 33 34 35 36 37 38 39 40 41 42 43 44 45 46 47 48 49 50

000
AXUS43 KGID 012002
MISGRI

GID CWA HOURLY WEATHER ROUNDUP
NATIONAL WEATHER SERVICE HASTINGS NE
300 PM CDT TUE SEP 01 2015

NOTE: "FAIR" INDICATES FEW OR NO CLOUDS BELOW 12,000 FEET WITH NO
SIGNIFICANT WEATHER AND/OR OBSTRUCTIONS TO VISIBILITY.

...SOUTH CENTRAL NEBRASKA...

CITY           SKY/WX    TMP DP  RH WIND       PRES   REMARKS
GRAND ISLAND   MOSUNNY   89  63  41 SW14      29.91F HX  90
HASTINGS       MOSUNNY   87  64  46 SW8       29.91F
KEARNEY        SUNNY     88  63  42 S16       29.91F
ORD            MOSUNNY   90  62  39 VRB7      29.87F HX  90
YORK           MOSUNNY   90  66  45 S20G25    29.91F HX  92
AURORA         MOSUNNY   89  63  42 S15G24    29.90F
LEXINGTON      SUNNY     90  57  32 NW3       29.91F
HOLDREGE       SUNNY     86  60  41 SE10      29.92F
HEBRON         MOSUNNY   93  57  29 S16G25    29.90F HX  92

...NEBRASKA PANHANDLE...

CITY           SKY/WX    TMP DP  RH WIND       PRES   REMARKS
CHADRON        SUNNY     94  41  16 NW8G20    29.87F HX  90
ALLIANCE       SUNNY     91  40  16 VRB3      29.93F
SCOTTSBLUFF    SUNNY     92  40  16 W5        29.94F
SIDNEY         SUNNY     92  35  13 SW9       29.99F

...WESTERN AND NORTH CENTRAL NEBRASKA...

CITY           SKY/WX    TMP DP  RH WIND       PRES   REMARKS
VALENTINE      SUNNY     93  56  28 S15       29.86F HX  91
AINSWORTH      SUNNY     87  61  41 SE15      29.90S
ONEILL         MOSUNNY   81  69  67 E5        29.90S
BROKEN BOW     MOSUNNY   88  62  41 VRB3      29.90F
IMPERIAL       SUNNY     91  51  25 VRB5      29.95F
NORTH PLATTE   SUNNY     89  56  32 VRB3      29.90F
MCCOOK         SUNNY     90  58  33 S8        29.92S

...EASTERN NEBRASKA...

CITY           SKY/WX    TMP DP  RH WIND       PRES   REMARKS
NORFOLK        MOSUNNY   86  69  56 S14       29.88F HX  90
SO SIOUX CITY  PTSUNNY   85  69  58 S10       29.89F
TEKAMAH        PTSUNNY   85  73  67 S9        29.91S HX  91
COLUMBUS       MOSUNNY   88  68  51 S10G16    29.89F HX  91
ALBION         MOSUNNY   85  66  53 S16       29.89F
OMAHA EPPLEY   PTSUNNY   88  69  53 S16       29.92F HX  92
OFFUTT AFB     MOSUNNY   89  71  56 S14       29.92F HX  94
MILLARD        MOSUNNY   88  72  58 S12G17    29.92F HX  94
LINCOLN        MOSUNNY   90  67  46 S15       29.91F HX  93
NEBRASKA CITY  MOSUNNY   90  64  41 S13       29.95S HX  91
BEATRICE       MOSUNNY   89  67  47 S17       29.93F HX  91
FALLS CITY     MOSUNNY   92  68  45 S15       29.95F HX  96

...NORTHERN KANSAS...

CITY           SKY/WX    TMP DP  RH WIND       PRES   REMARKS
GOODLAND       MOSUNNY   89  53  29 VRB5      29.99S
HILL CITY      SUNNY     93  59  31 VRB3      29.91F HX  92
NORTON         CLEAR     90  55  31 S8        29.91S
PHILLIPSBURG   SUNNY     91  59  33 CALM      29.90F HX  90
SMITH CENTER   SUNNY     93  59  31 S13G20    29.89F HX  92
HAYS           SUNNY     97  57  26 S15G24    29.91S HX  95
RUSSELL        SUNNY     96  58  27 SW22G33   29.89F HX  95
CONCORDIA      SUNNY     92  64  39 S21G29    29.91F HX  93
SALINA         SUNNY     95  63  34 S18G28    29.92F HX  96
TOPEKA         SUNNY     91  67  44 SE15G22   29.98S HX  94



USA.gov is the U.S. government's official web portal to all federal, state and local government web resources and services.